Location: Krakow
(50.0830°N, 19.9170°E)
Time: 04:55:41
(UTC+01:00)

SR - Pass Details

Date: 13 February 2023
Orbit: 582 x 867 km, 66.7° (Epoch: 20 March)

Event Time Altitude Azimuth Distance (km) Brightness Sun altitude
Rises 14:02:57 0° 264° (W) 3,085 ? 20.6°
Reaches altitude 10° 14:05:57 10° 282° (WNW) 2,113 ? 20.3°
Maximum altitude 14:09:24 19° 328° (NNW) 1,523 ? 20.0°
Drops below altitude 10° 14:12:42 10° 15° (NNE) 2,006 ? 19.7°
Sets 14:15:28 0° 34° (NE) 2,877 ? 19.5°
